Location: Unspecified
(43.4106°N, 0.0000°E)
Time: 02:22:30
(UTC+00:00)

Transit 4A - Visible Passes

Search period start: 04 April 2026 00:00
Search period end: 14 April 2026 00:00
Orbit: 863 x 978 km, 66.8° (Epoch: 29 March)

Date Brightness Start Highest point End Pass type
(mag) Time Alt. Az. Time Alt. Az. Time Alt. Az.
4 Apr 10.4 00:02:44 10° N 00:06:34 16° NNE 00:09:53 11° ENE visible
4 Apr 8.6 01:47:59 10° NNW 01:53:15 53° NNE 01:53:15 53° NNE visible
4 Apr 9.6 03:35:02 10° NW 03:36:38 16° WNW 03:36:38 16° WNW visible
5 Apr 10.0 00:11:08 10° N 00:15:47 21° NE 00:17:22 19° ENE visible
5 Apr 8.8 01:56:42 10° NNW 02:00:45 42° NNW 02:00:45 42° NNW visible
5 Apr 10.4 18:52:36 10° W 18:57:11 22° NW 19:01:53 10° N visible
6 Apr 9.7 00:19:37 10° NNW 00:24:55 27° NE 00:25:08 27° NE visible
6 Apr 9.2 02:05:29 10° NW 02:08:32 30° NW 02:08:32 30° NW visible
6 Apr 10.5 19:02:30 10° WNW 19:06:22 17° NNW 19:10:19 10° N visible
6 Apr 10.6 22:43:48 10° N 22:45:32 11° NNE 22:47:16 10° NE visible
7 Apr 9.4 00:28:10 10° NNW 00:33:03 33° NNE 00:33:03 33° NNE visible
7 Apr 9.6 02:14:21 10° NW 02:16:29 22° NW 02:16:29 22° NW visible
7 Apr 10.5 19:12:42 10° WNW 19:15:38 14° NNW 19:18:37 10° N visible
7 Apr 10.4 22:51:47 10° N 22:54:53 14° NNE 22:57:40 11° NE visible
8 Apr 9.2 00:36:46 10° NNW 00:41:05 38° N 00:41:05 38° N visible
8 Apr 10.0 02:23:24 10° NW 02:24:31 15° NW 02:24:31 15° NW visible
8 Apr 10.7 19:23:22 10° NW 19:24:59 11° NNW 19:26:35 10° N visible
8 Apr 10.1 23:00:05 10° N 23:04:09 17° NNE 23:05:47 16° NE visible
9 Apr 9.2 00:45:25 10° NNW 00:49:13 37° NNW 00:49:13 37° NNW visible
9 Apr 10.2 02:32:39 10° NW 02:32:40 10° NW 02:32:40 10° NW visible
9 Apr 9.8 23:08:31 10° N 23:13:20 22° NE 23:13:58 22° NE visible
10 Apr 9.3 00:54:09 10° NNW 00:57:24 33° NNW 00:57:24 33° NNW visible
10 Apr 9.5 23:17:01 10° NNW 23:22:12 28° NE 23:22:12 28° NE visible
11 Apr 9.5 01:02:57 10° NW 01:05:38 27° NW 01:05:38 27° NW visible
11 Apr 10.4 21:40:59 10° N 21:43:09 12° NNE 21:45:18 10° NE visible
11 Apr 9.2 23:25:34 10° NNW 23:30:28 35° NNE 23:30:28 35° NNE visible
12 Apr 9.8 01:11:52 10° NW 01:13:55 21° NW 01:13:55 21° NW visible
12 Apr 10.2 21:49:05 10° N 21:52:29 14° NNE 21:55:20 11° ENE visible
12 Apr 9.0 23:34:10 10° NNW 23:38:47 41° N 23:38:47 41° N visible
13 Apr 10.0 01:20:56 10° NW 01:22:14 16° NW 01:22:14 16° NW visible
13 Apr 9.9 21:57:27 10° N 22:01:43 18° NE 22:03:40 16° ENE visible
13 Apr 8.9 23:42:52 10° NNW 23:47:08 43° NNW 23:47:08 43° NNW visible
